Location: Unspecified
(0.0000°N, 0.0000°E)
Time: 23:43:22
(UTC+00:00)

A-11 Canister half - Pass Details

Date: 20 December 2018
Orbit: 1515 x 1685 km, 47.2° (Epoch: 18 January)

Event Time Altitude Azimuth Distance (km) Brightness Sun altitude
Rises 20:07:26 0° 336° (NNW) 4,900 11.6 -29.5°
Reaches altitude 10° 20:10:55 10° 344° (NNW) 3,926 11.0 -30.2°
Enters shadow 20:14:27 23° 358° (N) 3,051 10.3 -31.0°
